Location: Newark
(36.7000°N, 45.1333°E)
Time: 02:36:15
(UTC+00:00)

LightSail 2 - Pass Details

Date: 26 January 2020
Orbit: 698 x 724 km, 24.0° (Epoch: 26 February)

Event Time Altitude Azimuth Distance (km) Brightness Sun altitude
Rises 14:39:54 0° 246° (WSW) 3,067 11.3 -4.9°
Reaches altitude 10° 14:42:59 10° 228° (SW) 2,153 9.0 -5.5°
Maximum altitude 14:46:23 18° 186° (S) 1,677 7.4 -6.2°
Drops below altitude 10° 14:49:49 10° 143° (SE) 2,164 7.5 -6.8°
Sets 14:52:56 0° 125° (SE) 3,088 8.1 -7.4°
